Simultaneous Nadir Overpasses (SNOs) Predictions

Prediction of SNOs between AQUA and METOP-B Satellite Orbit:

Table of predicted SNOs for the next 14.0 days since TLE Epoch: 5/15/2015
Index Date (AQUA) Time (AQUA) Lat,Lon (AQUA) SZA (AQUA ) Date (METOP-B) Time (METOP-B) Lat,Lon (METOP-B) SZA (METOP-B ) Distance(km) Time Diff (sec)
1 05/15/2015 21:48:43 73.72,-152.48 54.73 05/15/2015 21:47:44 73.74,-152.48 54.76 1.81 59
2 05/15/2015 22:38:10 -73.79, 15.01 125.21 05/15/2015 22:38:25 -73.78, 14.94 125.22 2.59 15
3 05/15/2015 23:27:47 74.29,-178.50 55.33 05/15/2015 23:28:55 74.26,-176.55 55.24 59.03 68
4 05/18/2015 17:22:52 73.73, -86.05 54.11 05/18/2015 17:22:04 73.76, -86.01 54.14 3.23 48
5 05/18/2015 18:12:19 -73.80, 81.45 125.83 05/18/2015 18:12:45 -73.80, 81.41 125.83 1.30 26
6 05/21/2015 12:57:00 73.76, -19.64 53.54 05/21/2015 12:56:24 73.77, -19.57 53.56 2.66 36
7 05/21/2015 13:46:27 -73.82, 147.87 126.40 05/21/2015 13:47:05 -73.81, 147.85 126.41 0.94 38
8 05/24/2015 07:41:24 -73.01,-119.25 127.79 05/24/2015 07:40:19 -72.99,-122.25 127.71 97.54 65
9 05/24/2015 08:31:06 73.79, 46.75 53.03 05/24/2015 08:30:43 73.77, 46.85 53.01 3.61 23
10 05/24/2015 09:20:32 -73.80,-145.62 126.97 05/24/2015 09:21:24 -73.81,-145.73 126.96 3.58 52
11 05/27/2015 03:15:40 -73.58, -53.94 127.69 05/27/2015 03:14:28 -73.53, -54.64 127.71 22.56 72
12 05/27/2015 04:05:11 73.79, 113.24 52.53 05/27/2015 04:05:03 73.76, 113.24 52.51 2.91 8
13 05/27/2015 04:54:38 -73.85, -79.25 127.42 05/27/2015 04:55:43 -73.85, -79.22 127.42 1.00 65




NCC Satellite Simultaneous Nadir Overpasses (SNOs) Prediction Service
